EDT,Max TemperatureF,Mean TemperatureF,Min TemperatureF,Max Dew PointF,MeanDew PointF,Min DewpointF,Max Humidity, Mean Humidity, Min Humidity, Max Sea Level PressureIn, Mean Sea Level PressureIn, Min Sea Level PressureIn, Max VisibilityMiles, Mean VisibilityMiles, Min VisibilityMiles, Max Wind SpeedMPH, Mean Wind SpeedMPH, Max Gust SpeedMPH,PrecipitationIn, CloudCover, Events, WindDirDegrees
2013-5-1,81,62,44,56,49,44,100,78,38,30.24,30.15,30.08,10,6,0,13,2,16,0.00,0,Fog,142
2013-5-2,80,66,53,54,49,43,93,58,35,30.25,30.20,30.14,10,10,10,14,4,21,0.00,0,,132
2013-5-3,75,65,55,55,45,32,69,48,23,30.12,30.09,30.05,10,10,10,16,5,23,0.00,1,,111
2013-5-4,71,63,55,47,40,33,69,46,28,30.12,30.09,30.05,10,10,10,17,9,24,0.00,0,,105
2013-5-5,72,62,53,44,38,32,62,45,25,30.11,30.06,30.02,10,10,10,15,7,20,0.00,0,,93
2013-5-6,73,60,46,48,43,37,77,54,38,30.06,30.02,29.98,10,10,10,13,6,17,0.00,0,,83
2013-5-7,75,62,48,52,48,40,86,60,38,30.06,30.02,29.99,10,10,10,12,4,21,0.00,1,,80
2013-5-8,80,64,48,57,50,44,96,65,35,30.02,29.98,29.94,10,10,10,9,3,,0.07,4,Rain-Thunderstorm,70
2013-5-9,80,61,44,55,48,43,100,75,32,29.97,29.94,29.90,10,5,0,9,1,,0.00,1,Fog,240
2013-5-10,73,57,44,61,53,39,96,81,64,29.92,29.80,29.76,10,8,2,17,8,23,0.22,7,Rain,265
2013-5-11,63,49,35,47,41,31,89,78,52,29.92,29.85,29.75,10,10,8,21,9,31,0.02,6,Rain,294
2013-5-12,50,41,30,32,28,23,89,63,43,30.11,29.98,29.89,10,10,10,21,11,32,0.00,5,,286
2013-5-13,55,38,21,31,23,19,92,57,25,30.19,30.14,30.11,10,10,10,14,5,20,0.00,1,,298
2013-5-14,79,60,41,53,40,29,69,50,35,30.11,29.90,29.73,10,10,9,18,7,25,0.00,3,,187
2013-5-15,82,68,55,58,48,41,84,47,26,29.79,29.70,29.60,10,10,10,23,8,32,0.00,0,,286
2013-5-16,84,64,46,48,43,38,83,46,24,30.02,29.88,29.79,10,10,10,16,5,22,0.00,0,,328
2013-5-17,73,62,50,45,41,34,68,48,31,30.15,30.10,30.03,10,10,10,12,7,18,0.00,2,,89
2013-5-18,80,67,54,53,45,37,64,50,36,30.15,30.10,30.04,10,10,10,10,6,,0.00,1,,105
2013-5-19,84,66,48,63,55,44,83,62,43,30.05,29.97,29.90,10,10,10,12,2,,0.00,0,,143
2013-5-20,90,73,57,68,62,55,94,69,39,29.94,29.87,29.78,10,8,2,20,4,26,0.00,1,,208
2013-5-21,84,75,64,66,61,55,93,63,40,29.82,29.76,29.72,10,9,2,18,7,32,0.20,2,Rain,215
2013-5-22,81,70,60,64,62,57,100,87,50,29.76,29.72,29.63,10,7,1,30,5,81,0.11,3,Rain-Thunderstorm,215
2013-5-23,64,54,44,59,51,40,100,88,75,30.16,29.85,29.71,10,6,1,21,8,25,0.12,7,Rain,301
2013-5-24,57,48,37,41,36,30,93,70,44,30.35,30.28,30.16,10,10,10,15,8,22,0.00,4,,356
2013-5-25,66,46,28,38,33,28,100,76,32,30.41,30.34,30.29,10,6,0,7,1,,0.00,0,Fog,41
2013-5-26,71,51,32,42,34,29,100,70,26,30.35,30.30,30.23,10,7,0,7,1,,0.00,0,Fog,51
2013-5-27,59,50,43,48,41,36,88,73,55,30.27,30.15,30.01,10,7,2,12,4,16,0.70,6,Rain,107
2013-5-28,79,65,52,70,62,53,100,87,71,29.99,29.91,29.82,10,6,1,15,5,24,0.13,7,Rain-Thunderstorm,154
2013-5-29,84,73,64,67,64,60,97,72,51,30.00,29.93,29.82,10,9,1,18,9,29,0.00,1,,247
2013-5-30,88,72,57,70,63,57,100,83,49,30.06,30.02,29.97,10,6,0,17,3,28,0.08,2,Fog-Rain-Thunderstorm,202
2013-5-31,81,74,66,70,67,64,94,83,60,30.00,29.93,29.88,10,9,1,18,8,36,0.11,4,Rain-Thunderstorm,215